Regional Weather Roundup
Issued by NWS Northern Indiana

Home | Current Version | Previous Version | Text Only | Print | Product List | Glossary Off
Versions: 1 2 3 4 5 6 7 8 9 10 11 12 13 14 15 16 17 18 19 20 21 22 23 24 25 26 27 28 29 30 31 32 33 34 35 36 37 38 39 40 41 42 43 44 45 46 47 48 49 50

000
ASUS43 KIWX 191600
RWRIWX

KIWX WEATHER ROUNDUP
NATIONAL WEATHER SERVICE NORTHERN INDIANA
1100 AM EST SUN FEB 19 2017

NOTE: "FAIR" INDICATES FEW OR NO CLOUDS BELOW 12,000 FEET WITH NO
SIGNIFICANT WEATHER AND/OR OBSTRUCTIONS TO VISIBILITY.

* THESE STATIONS ARE NOT UNDER NWS QUALITY CONTROL. THEY ALSO MAY NOT
  REPORT WEATHER SUCH AS PRECIPITATION OR FOG.

INZ001>027-191700-
NORTHERN INDIANA

CITY           SKY/WX    TMP DP  RH WIND       PRES   REMARKS
GARY*          SUNNY     57  30  35 CALM      30.07R
KNOX*          SUNNY     45  27  49 S5        30.07R
SOUTH BEND     SUNNY     54  35  48 CALM      30.07R
GOSHEN         SUNNY     53  38  56 SW6       30.05S
MONTICELLO*    CLOUDY    46  44  95 S6        30.07S FOG
ANGOLA*        SUNNY     52  39  62 W5        30.03S
FORT WAYNE     CLOUDY    46  43  89 W8        30.08R FOG
PERU/GRISSOM   CLOUDY    49  49 100 CALM      30.07R

$$
INZ028>050-191700-
CENTRAL INDIANA

CITY           SKY/WX    TMP DP  RH WIND       PRES   REMARKS
LAFAYETTE      CLOUDY    50  46  86 VRB5      30.08R FOG
KOKOMO*        MOSUNNY   49  45  86 SW5       30.08S FOG
MUNCIE*        CLOUDY    51  45  79 W7        30.08R
INDIANAPOLIS   CLOUDY    50  46  86 S3        30.09R

$$
MIZ043>046-050>051-056>058-064>065-071>073-077>080-191700-
SOUTHWEST LOWER MICHIGAN

CITY           SKY/WX    TMP DP  RH WIND       PRES   REMARKS
BATTLE CREEK   SUNNY     52  35  52 W6        30.03R
BENTON HARBOR  SUNNY     53  35  50 W6        30.05R
COLDWATER*     SUNNY     52  35  51 W7        30.03R
HILLSDALE*     SUNNY     52  34  50 W6        30.01S
HOLLAND        SUNNY     53  35  50 CALM      30.04R
GRAND RAPIDS   MOSUNNY   52  33  48 NW5       30.03R
KALAMAZOO      SUNNY     54  31  41 NW3       30.04R
STURGIS*       SUNNY     51  36  54 W5        30.03S
THREE RIVERS*  FAIR      54  34  47 W3        30.04S

$$
OHZ001>008-015>018-024>025-191700-
NORTHWEST OHIO

CITY           SKY/WX    TMP DP  RH WIND       PRES   REMARKS
DEFIANCE       SUNNY     48  42  80 SW9       30.05R
FINDLAY        PTSUNNY   50  44  80 W12       30.04R HAZE
TOLEDO EXPRESS SUNNY     52  40  63 W9        30.02R
TOLEDO METCALF SUNNY     55  38  52 W12       30.02R
LIMA           CLOUDY    49  46  90 W10       30.06R

$$
AND FOR LAKE MICHIGAN COASTAL AND OPEN LAKE BUOY OBSERVATIONS

STATION/POSITION TEMP    WIND        PRES    VSBY  WAVE
                 AIR SEA DIR/SP/G                  HT/PER
                 (F)     (DEG/KT/KT) (MB)    (MI)  (FT/S)
CALUMET HARBOR    54      90/  2/  3 1017.3R
MICHIGAN CITY     46     230/  3/  3   N/A
BURNS HARBOR      49     300/  2/  3 1018.6R
SAINT JOSEPH      41     200/  6/  8 1018.3

$$
&&




USA.gov is the U.S. government's official web portal to all federal, state and local government web resources and services.